GFSGBSN_500_rhum_090.txt.gz
RH
51 52 49 45 43 42 40 38 37 38 39 41 41 40 43 43 45 42 45 47 53 52 52 54 58 60 69 63 66 87 76 66 64 59 53 53 51 47 39 36 33 25 27 28 31 30 30
60 51 46 45 45 45 42 40 40 39 36 32 31 30 27 28 29 34 40 41 37 32 44 57 67 73 64 58 91 91 77 82 72 70 62 58 58 55 46 42 36 29 26 25 24 24 26
51 48 46 47 48 46 40 33 23 12 8 6 6 6 6 5 5 7 8 15 31 35 30 27 57 64 70 72 92 94 95 88 91 81 69 63 60 54 45 45 44 39 31 28 24 22 24
50 49 50 48 42 32 19 12 8 6 6 5 4 4 4 3 3 3 3 3 5 6 22 29 14 31 46 79 98 97 93 95 94 91 81 68 61 53 46 44 44 39 34 30 26 24 31
54 51 46 37 25 14 9 7 6 6 4 3 2 2 2 2 2 2 2 2 2 2 4 9 25 14 25 75 100 97 90 100 96 97 93 91 78 59 54 49 46 43 36 31 26 28 34
53 44 31 20 15 9 7 7 6 4 3 3 3 3 3 2 2 2 2 2 2 2 2 2 6 18 16 56 100 97 98 100 98 99 98 94 93 70 58 53 42 39 30 27 23 26 30
40 29 20 16 10 7 7 6 4 4 3 3 3 3 3 3 3 2 2 2 2 2 2 2 2 6 18 59 96 97 97 98 99 97 94 97 78 70 52 40 38 36 32 26 20 20 19
29 22 18 12 7 7 7 5 4 4 4 4 4 3 3 3 3 4 3 2 2 2 1 2 1 2 11 81 64 95 98 99 97 99 99 97 74 62 43 36 30 25 24 21 21 21 16
22 18 13 8 6 6 6 5 5 4 4 4 3 3 4 4 6 5 4 4 4 3 2 2 5 3 8 74 57 98 98 99 99 98 99 99 97 74 46 37 28 27 25 26 21 21 17
17 12 7 5 5 5 5 5 5 5 5 5 4 4 5 7 8 12 5 6 7 7 3 2 7 16 28 63 55 87 98 98 99 100 100 92 92 97 83 51 30 26 30 28 20 17 15
11 7 5 4 5 5 5 6 6 6 6 6 5 6 8 11 20 12 6 7 8 11 8 14 23 26 56 54 64 90 97 96 99 99 94 74 48 41 35 36 34 30 32 29 27 20 13
8 5 4 4 4 4 5 6 7 7 7 6 6 10 12 34 23 6 7 8 10 20 10 48 76 66 75 67 60 63 95 94 91 96 92 44 36 35 29 21 20 21 22 25 22 20 13
6 4 4 4 4 4 5 6 8 9 8 7 10 10 33 36 15 8 10 10 13 14 23 65 99 100 77 74 68 49 81 78 79 56 75 34 48 37 20 15 15 26 32 23 21 20 17
5 4 4 4 5 5 5 7 9 10 8 8 12 14 51 42 22 10 10 11 12 14 22 55 100 100 86 68 64 45 65 55 58 23 18 16 15 18 17 23 32 29 22 24 21 20 20
4 4 4 5 6 5 5 8 11 11 8 12 11 39 52 43 19 16 15 14 14 15 30 75 100 100 96 55 52 44 46 36 22 14 14 14 15 18 21 23 18 16 19 24 32 34 19
4 5 5 5 6 6 6 9 13 11 10 15 16 61 43 19 35 44 23 17 15 14 41 79 100 100 100 65 62 56 33 26 25 21 16 18 18 16 14 12 13 12 26 41 43 40 34
5 5 5 5 6 6 7 10 14 12 15 15 55 51 21 35 70 80 44 23 16 21 36 85 100 100 100 88 80 57 72 52 57 67 30 19 14 15 11 10 11 13 29 38 42 63 60
5 5 5 5 6 5 8 10 15 14 19 20 72 23 57 90 100 100 71 26 17 27 45 100 99 100 100 78 79 90 85 56 87 33 25 27 29 21 19 14 15 17 35 40 47 98 84
5 5 5 6 5 6 9 10 16 17 19 53 44 32 62 91 100 100 54 22 19 32 92 100 100 100 100 99 97 96 100 93 76 93 63 28 18 19 25 29 29 34 37 22 65 89 74
5 5 5 5 6 6 10 11 17 20 19 76 25 44 76 96 75 75 51 26 35 37 88 100 100 100 100 100 100 97 95 100 90 96 99 79 55 56 50 50 50 44 29 25 34 89 87
6 5 5 6 6 7 10 12 18 23 27 85 24 41 61 92 65 100 100 84 91 83 83 100 100 100 100 100 100 100 99 100 99 100 100 100 100 89 57 40 33 30 25 36 19 77 68
8 6 5 6 6 8 11 16 20 25 39 97 22 41 53 75 79 100 100 99 92 77 83 100 99 99 100 100 100 100 100 93 92 68 76 76 63 32 17 16 14 15 20 19 6 5 8
14 7 6 6 7 8 10 19 20 27 44 93 25 36 43 66 78 82 100 97 99 74 90 94 99 100 100 100 100 100 100 77 83 87 77 48 37 32 19 13 13 12 8 6 5 5 7
15 9 7 7 7 9 10 21 22 27 47 95 26 31 37 59 84 82 86 77 83 77 74 77 92 95 97 95 87 61 49 51 34 19 42 92 70 30 27 20 17 15 14 12 10 11 8
12 11 8 7 8 9 14 23 25 24 55 97 40 25 30 36 68 85 100 96 86 90 74 79 86 90 80 92 92 79 24 22 39 41 84 79 72 53 44 35 24 14 14 14 14 12 10
9 11 9 8 8 9 19 24 28 22 65 100 63 28 32 30 34 74 94 100 100 100 95 75 82 90 89 83 59 61 55 50 71 82 82 71 45 39 29 27 26 16 12 11 15 16 18
9 9 10 8 8 11 23 25 30 19 84 100 86 28 36 32 30 34 73 93 99 94 96 100 95 97 96 91 92 92 90 91 78 48 37 29 26 23 15 14 16 10 9 8 10 15 20
18 9 9 8 9 19 26 27 28 30 95 100 98 39 29 31 26 29 28 31 49 65 69 82 89 93 96 97 86 73 52 36 32 32 26 26 16 11 8 7 7 18 15 11 8 7 10
29 12 9 9 13 26 28 31 21 68 95 89 87 50 24 28 26 26 23 22 22 20 22 30 46 61 61 54 45 37 29 19 19 22 26 25 16 12 14 26 34 45 44 28 11 7 20

GFSGBSN_500_rhum_096.txt.gz
RH
85 86 88 84 73 56 58 55 51 44 35 29 26 25 22 22 20 18 16 15 12 10 8 8 8 7 6 6 7 12 19 25 34 47 70 74 78 84 65 64 62 48 50 48 48 48 47
95 96 94 92 88 69 59 56 53 44 36 30 29 26 22 20 17 17 14 11 8 6 5 4 4 4 4 5 4 4 10 18 28 46 72 77 85 90 90 68 63 59 51 46 46 46 42
89 88 86 94 88 74 62 58 49 40 35 31 27 23 18 17 16 13 10 7 5 5 4 4 4 4 3 4 3 3 3 6 18 32 62 96 97 94 90 85 66 63 56 52 48 47 43
92 87 90 94 89 75 64 52 43 39 33 28 23 19 18 16 12 9 7 6 4 4 4 4 4 4 4 3 2 2 2 2 5 25 50 100 99 98 84 96 80 72 63 54 55 54 48
93 92 94 96 89 77 56 47 41 35 29 24 20 19 16 11 9 7 6 5 4 5 5 5 3 3 2 2 2 2 2 2 2 10 30 99 90 98 100 88 97 84 68 63 62 52 54
96 96 96 96 87 61 51 45 39 32 27 21 20 17 12 9 8 6 6 5 5 5 5 3 2 2 2 2 2 2 2 2 2 3 23 46 91 95 99 98 72 96 87 73 64 62 59
100 97 95 93 77 58 50 44 36 30 24 22 19 14 10 9 7 6 7 5 6 6 4 3 3 5 2 3 2 2 2 2 2 3 18 29 88 72 79 100 100 99 96 92 88 71 62
100 98 94 93 80 62 50 41 34 28 24 21 16 12 11 8 7 7 6 7 7 5 3 3 9 6 4 3 2 2 2 2 2 4 44 38 38 88 100 100 98 98 96 95 97 81 70
99 97 95 94 77 58 47 38 32 27 24 20 15 13 10 8 8 7 7 8 6 4 3 3 12 3 4 20 3 3 3 2 2 20 39 33 67 100 97 100 98 94 92 100 97 97 83
100 99 94 82 65 55 43 35 31 26 24 19 14 12 9 8 8 8 9 7 5 4 9 10 12 6 68 96 24 3 3 4 8 34 67 52 85 100 100 97 98 87 100 100 96 93 90
98 97 85 73 63 51 40 33 30 26 23 17 12 10 8 8 8 9 9 6 5 13 16 17 13 5 77 99 48 4 4 8 15 56 59 49 90 100 96 98 99 97 98 98 96 92 90
97 97 86 73 61 45 37 32 29 24 20 12 10 8 8 8 9 9 7 5 12 8 16 16 12 4 63 99 62 9 8 11 67 81 61 74 95 100 100 100 100 100 99 99 99 95 69
98 90 82 71 53 42 36 32 28 23 14 10 8 7 7 8 10 8 5 12 7 13 44 21 8 8 91 100 82 28 24 27 75 72 92 86 100 100 100 99 99 98 93 80 67 60 50
96 92 81 62 49 40 36 31 25 18 10 8 7 6 7 10 10 7 10 9 11 26 30 15 9 27 100 100 100 68 68 82 93 65 66 89 100 100 100 100 100 100 98 79 73 64 51
97 92 69 56 48 40 35 26 22 14 9 7 6 6 8 10 9 7 17 11 30 28 38 12 16 67 99 100 100 93 72 66 70 79 78 100 100 100 99 100 100 98 90 59 46 32 27
98 77 63 57 49 41 34 27 16 11 8 7 5 6 9 10 8 20 6 17 27 16 18 24 61 100 100 100 99 99 46 44 53 82 99 100 100 100 100 86 40 61 52 63 57 33 28
86 70 65 58 51 40 31 22 13 9 7 6 5 7 10 9 9 19 6 14 13 15 27 93 100 100 100 100 100 93 100 37 88 94 95 100 99 97 98 90 89 74 36 32 33 30 25
83 69 61 59 51 36 31 17 11 8 7 6 5 7 11 9 22 12 9 12 14 16 94 100 100 100 100 100 100 100 100 85 51 87 93 100 89 63 74 78 41 43 36 32 25 24 21
74 67 62 66 55 40 27 18 13 10 7 6 6 8 11 10 28 8 13 10 14 52 100 100 100 100 100 100 100 100 99 100 96 88 100 100 65 50 54 35 28 27 25 20 16 22 20
66 66 69 70 56 42 22 18 12 10 7 6 6 9 11 16 29 7 12 9 11 36 97 99 100 100 100 100 100 100 100 100 99 99 88 100 99 90 80 48 30 20 14 16 15 20 28
72 78 81 69 54 38 24 14 11 10 7 6 6 11 12 18 28 9 16 12 11 36 88 98 99 100 100 100 100 100 100 100 100 100 100 99 100 91 99 88 73 61 43 26 34 36 33
84 85 79 65 44 25 15 10 10 10 7 6 7 12 12 22 33 10 19 51 43 32 81 94 92 96 100 100 100 100 100 100 100 100 100 100 100 100 90 81 83 77 50 51 48 46 46
90 86 74 47 27 15 12 11 12 11 8 6 7 13 12 23 40 10 26 24 58 41 50 76 83 96 100 96 100 100 100 100 100 100 100 100 100 100 97 91 85 75 68 61 42 31 25
85 68 35 16 12 12 12 12 12 10 8 7 7 14 13 20 55 13 28 37 30 37 41 57 77 83 94 90 91 99 100 100 100 99 99 98 100 99 94 100 100 72 54 34 20 14 12
36 16 12 13 12 12 14 13 12 10 8 7 8 16 14 20 64 14 17 29 42 45 66 70 79 78 81 88 77 81 96 98 94 95 97 96 90 86 62 56 63 49 22 18 17 17 16
14 12 12 13 14 15 15 15 13 10 8 8 12 18 17 33 68 15 16 32 51 63 78 76 84 80 80 82 81 74 81 87 80 80 66 49 54 71 60 87 93 87 64 48 24 20 18
22 21 21 21 20 20 18 16 14 11 9 8 17 19 19 52 74 19 16 21 44 69 84 81 94 84 79 79 76 75 74 68 71 69 60 59 64 75 79 97 78 74 73 65 45 33 29
40 28 25 24 24 22 21 20 16 12 9 10 21 18 36 76 59 20 17 22 32 61 82 95 97 93 91 79 70 68 66 62 60 60 63 62 60 61 89 80 60 68 61 41 32 27 25
46 33 29 26 26 25 24 23 19 12 9 16 22 19 68 87 34 15 19 22 27 46 70 78 82 78 71 66 65 68 68 70 67 66 56 56 55 57 54 39 39 40 31 26 23 19 17

GFSGBSN_500_rhum_099.txt.gz
RH
95 96 96 94 95 96 95 94 93 94 91 71 41 37 31 26 22 20 19 17 15 13 10 8 7 6 6 6 6 6 5 5 5 5 5 11 21 44 44 62 74 53 58 62 58 68 65
96 96 95 94 92 94 94 94 93 82 63 52 43 38 34 28 24 22 20 16 12 10 8 8 8 7 6 5 5 5 5 5 4 4 5 8 16 30 49 61 74 74 66 64 65 55 60
90 93 95 94 94 82 81 91 93 80 64 54 46 40 33 29 25 21 17 12 10 9 9 9 8 7 6 5 5 5 4 4 4 4 4 3 6 15 30 60 72 77 73 64 59 61 55
85 90 95 93 90 82 86 92 88 79 71 57 46 37 32 27 22 18 14 11 10 10 9 8 8 8 8 7 6 6 5 4 3 2 3 3 3 4 20 53 85 89 90 72 55 65 70
95 94 92 93 90 89 92 97 95 82 63 50 42 34 29 24 20 15 13 11 10 10 9 10 10 8 6 5 4 3 2 2 2 2 2 3 2 2 8 43 84 100 82 71 84 80 71
98 99 100 97 95 95 95 97 92 73 57 46 38 32 26 22 18 14 12 12 11 10 10 10 8 6 4 2 2 2 2 2 2 2 2 2 2 2 4 38 56 69 98 100 100 99 91
96 100 98 99 96 92 97 94 88 70 54 42 36 29 25 21 16 14 13 12 11 10 10 8 6 4 2 2 2 4 5 3 4 2 2 2 2 2 2 12 53 100 100 99 98 98 97
96 98 98 98 98 95 96 93 89 74 49 40 33 29 24 20 17 15 14 12 11 11 9 6 3 2 2 4 6 7 4 3 4 3 3 2 2 2 7 46 58 100 95 92 92 100 95
97 97 98 98 98 97 97 91 88 57 47 37 32 28 24 20 18 16 12 11 11 9 6 2 2 2 7 9 9 10 69 13 3 4 24 8 2 10 40 64 71 69 94 100 97 100 97
95 98 98 97 97 96 98 90 66 55 43 35 32 26 23 20 17 13 11 11 9 6 2 13 39 42 70 43 23 77 84 18 4 4 95 86 72 90 58 61 71 67 80 100 100 97 95
98 98 98 98 100 97 93 79 65 50 40 36 30 26 23 20 15 10 10 10 5 2 9 49 93 81 46 25 20 97 82 14 4 25 89 100 100 100 98 63 74 75 100 100 99 99 100
98 98 98 99 99 97 83 72 59 45 39 33 29 28 24 16 12 10 10 6 3 5 83 93 80 56 34 40 36 92 45 13 20 44 93 100 77 100 93 92 99 100 99 99 98 100 94
98 97 97 99 97 88 80 67 50 44 38 34 32 30 20 12 10 10 6 3 5 67 73 94 46 46 21 99 100 71 86 24 8 21 87 72 79 90 81 87 97 99 99 99 100 96 78
98 98 99 99 89 85 76 57 48 42 37 35 33 26 14 10 10 8 4 3 4 30 33 27 17 23 99 100 95 100 85 10 20 90 100 89 100 85 94 92 96 100 100 100 100 97 100
98 100 98 98 88 84 65 54 48 40 38 36 32 19 11 10 9 6 4 9 4 6 11 28 40 100 100 96 68 100 77 34 55 90 100 100 97 95 100 100 99 98 94 100 98 100 100
98 100 98 96 90 72 59 54 46 41 40 36 26 12 11 10 8 6 4 5 5 6 60 100 100 100 100 100 100 78 91 75 99 90 100 100 89 100 100 100 100 100 100 100 100 99 96
99 99 98 95 85 67 61 54 49 44 40 36 16 11 10 8 7 5 9 4 7 83 98 96 100 100 100 100 99 95 87 98 90 100 100 97 98 100 100 99 100 98 97 100 96 63 88
100 99 97 91 78 69 58 54 49 44 40 28 11 12 9 8 8 5 10 4 16 96 94 97 100 99 100 100 100 100 95 86 72 73 76 98 100 100 100 100 100 98 100 98 100 97 100
100 99 97 90 80 67 56 55 53 42 37 16 11 12 7 8 9 6 13 3 40 86 91 84 99 100 100 100 100 100 100 96 77 91 88 100 99 100 100 94 100 100 100 99 88 100 63
100 100 95 84 74 65 55 61 48 41 28 11 12 11 8 10 9 7 17 4 16 68 78 93 100 98 99 100 100 100 100 93 46 95 100 100 96 100 100 100 89 80 63 41 44 47 79
100 100 94 87 72 62 64 64 49 36 13 12 12 9 8 10 10 8 20 4 5 44 56 85 96 89 99 100 100 100 100 100 99 99 100 100 100 100 100 77 68 78 100 99 65 90 62
100 99 91 81 71 71 75 63 46 21 11 13 12 9 8 12 11 9 23 7 6 10 48 56 78 88 91 99 100 100 91 100 93 100 100 97 96 100 100 100 88 62 65 60 61 70 59
100 99 88 85 82 81 73 54 24 10 12 13 11 9 9 12 12 11 23 10 7 11 16 55 63 79 91 96 100 100 100 99 100 100 100 100 100 100 98 100 100 100 100 94 91 72 55
100 99 97 94 90 81 62 24 10 12 14 13 11 10 9 12 12 14 38 13 7 12 20 41 57 62 83 80 89 100 100 100 100 100 99 98 99 100 100 100 100 85 89 77 66 61 37
100 100 100 94 88 54 18 11 11 14 15 13 11 10 9 13 13 22 45 13 8 14 32 27 37 55 64 65 75 96 100 100 100 100 99 98 100 100 100 100 91 87 75 58 42 36 22
100 100 98 86 42 17 12 12 15 16 16 13 12 10 10 15 16 28 57 20 9 14 32 57 28 47 58 52 61 70 98 99 70 64 62 80 99 81 87 75 69 76 62 45 28 23 22
100 97 84 45 21 13 14 18 18 17 15 13 12 10 11 17 17 55 60 19 9 14 38 58 72 53 54 67 90 94 90 74 77 78 75 60 58 62 66 65 65 75 72 71 65 46 41
88 71 50 28 23 22 27 26 22 18 16 15 13 11 15 17 27 62 41 15 12 15 34 64 74 69 62 56 59 68 57 54 58 60 58 56 61 56 50 61 81 67 68 66 60 58 52
88 89 60 51 64 36 29 31 25 18 19 18 14 12 20 19 45 67 21 14 14 17 34 63 76 84 73 60 57 61 57 54 60 99 50 50 46 46 45 48 60 67 63 62 53 40 34

GFSGBSN_500_rhum_105.txt.gz
RH
95 95 97 96 95 88 82 88 95 99 99 96 94 93 93 90 88 88 81 79 66 57 46 38 34 31 26 20 15 13 12 10 9 8 7 6 6 6 5 5 5 5 5 9 8 24 38
93 95 89 97 96 96 91 86 85 98 98 96 86 87 82 74 79 78 70 63 56 52 47 40 34 29 22 18 14 11 9 7 6 6 6 5 5 6 5 5 5 5 5 5 6 8 12
26 48 86 94 97 97 96 95 92 93 92 93 90 84 86 80 79 79 74 68 60 53 49 39 31 24 15 12 10 8 7 6 5 5 5 4 5 5 5 5 4 5 5 4 4 4 5
30 30 34 43 85 97 97 97 97 97 93 90 86 88 88 84 81 80 77 72 62 54 42 32 24 17 11 9 8 8 8 7 6 5 4 4 4 4 4 4 4 4 4 5 4 4 4
13 26 7 16 76 84 97 96 97 96 94 88 92 93 94 89 82 81 76 72 60 43 32 24 18 12 10 9 8 7 5 4 4 3 3 2 3 3 3 3 3 3 3 3 3 4 4
19 16 10 18 94 98 96 96 95 97 98 98 96 94 96 94 88 80 82 68 41 32 22 16 13 11 10 8 6 4 4 3 2 2 2 3 4 5 3 3 2 2 1 2 2 2 4
26 18 11 55 73 97 97 92 97 97 97 96 96 97 96 92 92 88 66 40 31 20 17 14 14 12 8 5 3 2 2 2 13 26 28 30 27 15 10 6 12 5 2 2 2 2 4
45 30 12 28 69 97 98 97 97 96 97 96 96 97 96 94 94 66 42 32 21 16 15 15 11 7 4 3 2 2 5 47 55 61 73 89 58 21 14 14 27 30 5 3 2 8 76
55 36 19 87 66 100 98 97 98 96 98 97 97 97 97 95 79 45 34 23 19 18 17 11 7 4 3 2 4 4 11 66 90 67 74 74 65 100 17 14 84 81 12 4 4 94 93
92 55 29 14 60 100 99 97 96 97 97 97 98 97 95 88 53 37 25 22 20 18 12 7 5 5 4 4 13 48 24 22 37 64 76 78 88 71 29 99 100 54 7 4 23 92 93
99 94 38 18 45 97 99 96 98 98 98 98 97 98 91 64 41 29 24 23 21 13 10 6 4 6 15 17 36 47 51 44 39 58 100 87 64 29 100 100 59 8 61 72 46 69 71
94 98 61 34 98 70 79 93 98 97 98 98 97 96 82 45 34 27 25 23 17 12 8 6 7 7 21 19 29 49 58 75 81 79 96 13 13 55 92 99 58 98 95 99 87 90 70
99 98 51 40 76 96 98 100 96 98 99 98 96 92 50 40 29 28 25 20 16 12 10 5 4 16 17 29 38 40 50 91 86 48 47 14 53 46 88 99 53 85 91 100 100 100 56
99 99 74 52 95 98 96 100 98 99 98 98 94 60 47 33 30 29 23 22 15 13 6 4 8 35 26 22 46 41 36 49 55 8 28 75 100 100 100 58 82 55 80 91 87 50 36
100 96 93 96 87 99 98 97 99 98 98 96 78 52 39 32 33 28 24 20 16 11 5 4 16 22 24 22 38 58 86 72 57 84 99 100 100 76 73 100 100 69 76 66 44 59 71
100 100 100 94 95 98 99 97 98 98 98 90 56 47 36 35 34 26 23 17 12 6 3 18 8 24 17 19 43 60 43 40 54 80 100 100 100 88 64 64 46 58 81 53 54 91 95
100 98 98 99 99 100 100 98 98 98 97 71 54 44 38 37 32 24 22 13 8 4 3 15 18 26 26 28 57 57 58 36 70 99 99 100 100 100 100 100 100 65 64 74 88 100 100
99 90 99 100 99 99 99 98 99 99 91 68 51 42 39 40 26 25 17 11 7 4 4 8 27 47 39 24 36 75 68 45 53 90 100 100 100 93 91 100 100 92 95 97 99 100 99
99 99 100 98 98 100 99 98 99 100 89 64 48 43 43 38 24 26 18 12 6 4 4 5 24 37 43 26 30 48 70 78 69 39 63 78 98 100 100 100 100 100 100 100 99 100 100
100 100 100 99 100 100 99 99 100 94 76 58 47 46 44 31 24 25 16 10 5 4 4 5 20 43 63 42 35 48 74 94 95 93 66 64 95 100 100 98 100 100 100 100 100 96 100
100 99 100 100 100 99 99 100 100 93 71 57 49 48 40 22 24 25 14 9 5 4 4 8 14 57 64 51 52 49 50 64 100 97 100 98 97 96 100 100 100 100 100 100 100 100 100
100 100 100 100 100 100 98 100 99 79 67 56 55 55 40 23 30 26 13 7 5 5 4 7 6 39 66 66 65 71 59 86 93 100 100 100 98 100 100 100 100 98 100 100 98 100 100
100 100 100 100 100 100 100 100 98 84 70 62 60 53 28 24 30 25 10 8 6 6 6 6 9 7 52 69 79 99 97 86 95 100 100 100 100 100 100 100 100 100 100 98 99 100 90
100 100 100 100 100 100 100 100 97 80 72 68 61 43 18 29 34 20 9 7 7 6 6 12 13 4 23 50 67 97 100 94 86 94 92 93 100 100 99 100 100 100 96 95 86 95 96
100 100 100 100 100 100 100 100 90 81 77 75 60 23 18 36 32 15 9 8 9 8 7 13 12 6 5 33 38 60 100 93 86 92 100 93 88 100 100 100 96 100 100 100 100 100 92
100 100 100 100 100 100 99 98 95 86 81 69 28 15 23 38 24 12 10 10 10 9 9 10 21 6 15 25 36 47 100 100 100 100 100 100 100 100 97 99 100 98 89 81 92 86 83
100 100 100 100 100 100 99 100 99 92 82 47 17 17 32 37 18 12 12 12 11 9 11 20 17 6 28 50 36 48 100 98 100 100 99 100 100 100 100 100 99 98 98 81 68 68 59
100 100 100 100 100 100 100 100 96 90 58 22 20 31 37 30 15 14 14 13 12 10 19 14 8 8 20 75 66 64 90 89 100 96 96 83 85 77 80 59 51 52 60 67 65 64 66
100 100 100 100 100 100 99 96 93 52 30 16 42 39 36 23 16 16 15 14 12 21 12 7 7 10 32 71 100 97 57 65 95 95 90 86 69 66 44 41 31 29 25 29 58 62 61